| time (UTC) | temp C | wind direction | speed KPH | gust KPH | rain 1hr cm | rain 24hr cm | rain mn cm | humidity % | barometer mb |
| 20260507181303 | 19 | 173 | 0.0 | 4.8 | 0.00 | 0.00 | 0.00 | 42 | 1013.9 |
| 20260507180803 | 19 | 219 | 1.6 | 4.8 | 0.00 | 0.00 | 0.00 | 46 | 1013.9 |
| 20260507180303 | 19 | 216 | 0.0 | 9.7 | 0.00 | 0.00 | 0.00 | 43 | 1014.0 |
| 20260507174802 | 20 | 213 | 0.0 | 0.0 | 0.00 | 0.00 | 0.00 | 42 | 1014.2 |
| 20260507174302 | 18 | 227 | 0.0 | 0.0 | 0.00 | 0.00 | 0.00 | 46 | 1014.3 |
| 20260507173803 | 19 | 315 | 0.0 | 4.8 | 0.00 | 0.00 | 0.00 | 41 | 1014.4 |
| 20260507173302 | 19 | 228 | 0.0 | 1.6 | 0.00 | 0.00 | 0.00 | 43 | 1014.4 |
| 20260507171803 | 18 | 222 | 1.6 | 8.0 | 0.00 | 0.00 | 0.00 | 44 | 1014.6 |
| 20260507171303 | 18 | 258 | 0.0 | 3.2 | 0.00 | 0.00 | 0.00 | 47 | 1014.7 |
| 20260507170803 | 18 | 217 | 0.0 | 4.8 | 0.00 | 0.00 | 0.00 | 45 | 1014.8 |
| 20260507170303 | 18 | 215 | 0.0 | 4.8 | 0.00 | 0.00 | 0.00 | 45 | 1014.8 |
| 20260507164803 | 18 | 187 | 0.0 | 0.0 | 0.00 | 0.00 | 0.00 | 42 | 1015.1 |
| 20260507164303 | 17 | 204 | 0.0 | 1.6 | 0.00 | 0.00 | 0.00 | 46 | 1015.2 |
| 20260507163803 | 17 | 196 | 0.0 | 0.0 | 0.00 | 0.00 | 0.00 | 49 | 1015.1 |
| 20260507163302 | 17 | 231 | 0.0 | 1.6 | 0.00 | 0.00 | 0.00 | 45 | 1015.2 |
| 20260507161303 | 16 | 194 | 0.0 | 3.2 | 0.00 | 0.00 | 0.00 | 51 | 1015.4 |
| 20260507160803 | 16 | 197 | 0.0 | 8.0 | 0.00 | 0.00 | 0.00 | 50 | 1015.4 |
| 20260507160302 | 16 | 184 | 0.0 | 1.6 | 0.00 | 0.00 | 0.00 | 51 | 1015.5 |
| 20260507154803 | 16 | 181 | 0.0 | 4.8 | 0.00 | 0.00 | 0.00 | 51 | 1015.6 |
| 20260507154303 | 15 | 169 | 0.0 | 4.8 | 0.00 | 0.00 | 0.00 | 56 | 1015.6 |
| 20260507153803 | 15 | 224 | 0.0 | 4.8 | 0.00 | 0.00 | 0.00 | 53 | 1015.5 |
| 20260507153303 | 15 | 233 | 0.0 | 1.6 | 0.00 | 0.00 | 0.00 | 49 | 1015.6 |
| 20260507151803 | 15 | 178 | 0.0 | 4.8 | 0.00 | 0.00 | 0.00 | 56 | 1015.8 |
| 20260507150802 | 14 | 202 | 0.0 | 0.0 | 0.00 | 0.00 | 0.00 | 56 | 1015.8 |
| 20260507144803 | 13 | 177 | 0.0 | 4.8 | 0.00 | 0.00 | 0.00 | 61 | 1016.0 |
| 20260507144302 | 13 | 179 | 0.0 | 3.2 | 0.00 | 0.00 | 0.00 | 61 | 1015.9 |
| 20260507143802 | 13 | 156 | 0.0 | 4.8 | 0.00 | 0.00 | 0.00 | 61 | 1015.9 |
| 20260507143302 | 12 | 137 | 0.0 | 3.2 | 0.00 | 0.00 | 0.00 | 65 | 1015.9 |
| 20260507141803 | 12 | 153 | 0.0 | 8.0 | 0.00 | 0.00 | 0.00 | 67 | 1016.1 |
| 20260507141302 | 11 | 146 | 0.0 | 1.6 | 0.00 | 0.00 | 0.00 | 70 | 1016.1 |
| 20260507140303 | 11 | 151 | 0.0 | 0.0 | 0.00 | 0.00 | 0.00 | 74 | 1016.3 |
| 20260507134803 | 10 | 151 | 0.0 | 0.0 | 0.00 | 0.00 | 0.00 | 75 | 1016.4 |
| 20260507134303 | 10 | 148 | 0.0 | 0.0 | 0.00 | 0.00 | 0.00 | 77 | 1016.5 |
| 20260507133803 | 9 | 148 | 0.0 | 0.0 | 0.00 | 0.00 | 0.00 | 80 | 1016.5 |
| 20260507133303 | 8 | 8 | 0.0 | 1.6 | 0.00 | 0.00 | 0.00 | 81 | 1016.6 |
| 20260507131303 | 7 | 355 | 0.0 | 0.0 | 0.00 | 0.00 | 0.00 | 89 | 1016.8 |
| 20260507130803 | 6 | 355 | 0.0 | 0.0 | 0.00 | 0.00 | 0.00 | 90 | 1016.8 |
| 20260507130303 | 6 | 355 | 0.0 | 0.0 | 0.00 | 0.00 | 0.00 | 91 | 1016.9 |
| 20260507124803 | 5 | 355 | 0.0 | 0.0 | 0.00 | 0.00 | 0.00 | 93 | 1016.8 |
| 20260507123803 | 5 | 355 | 0.0 | 0.0 | 0.00 | 0.00 | 0.00 | 93 | 1016.6 |
| 20260507123303 | 5 | 355 | 0.0 | 0.0 | 0.00 | 0.00 | 0.00 | 93 | 1016.6 |
| 20260507121303 | 4 | 355 | 0.0 | 0.0 | 0.00 | 0.00 | 0.00 | 93 | 1016.4 |
| 20260507120803 | 4 | 355 | 0.0 | 0.0 | 0.00 | 0.00 | 0.00 | 93 | 1016.3 |
| 20260507120302 | 3 | 355 | 0.0 | 0.0 | 0.00 | 0.00 | 0.00 | 92 | 1016.3 |
| 20260507114803 | 3 | 355 | 0.0 | 0.0 | 0.00 | 0.00 | 0.00 | 93 | 1016.2 |
| 20260507114303 | 3 | 355 | 0.0 | 0.0 | 0.00 | 0.00 | 0.00 | 93 | 1016.2 |
| 20260507113803 | 3 | 355 | 0.0 | 0.0 | 0.00 | 0.00 | 0.00 | 93 | 1016.1 |
| 20260507113302 | 3 | 355 | 0.0 | 0.0 | 0.00 | 0.00 | 0.00 | 92 | 1016.0 |
| 20260507111803 | 3 | 355 | 0.0 | 0.0 | 0.00 | 0.00 | 0.00 | 92 | 1016.0 |
| 20260507111303 | 3 | 355 | 0.0 | 0.0 | 0.00 | 0.00 | 0.00 | 92 | 1015.9 |
| 20260507110803 | 3 | 355 | 0.0 | 0.0 | 0.00 | 0.00 | 0.00 | 91 | 1015.9 |
| 20260507110303 | 3 | 355 | 0.0 | 0.0 | 0.00 | 0.00 | 0.00 | 91 | 1015.9 |
| 20260507104803 | 3 | 355 | 0.0 | 0.0 | 0.00 | 0.03 | 0.00 | 92 | 1015.8 |
| 20260507103803 | 4 | 355 | 0.0 | 0.0 | 0.00 | 0.03 | 0.00 | 92 | 1015.8 |
| 20260507103303 | 4 | 355 | 0.0 | 0.0 | 0.00 | 0.03 | 0.00 | 92 | 1015.8 |
| 20260507101303 | 4 | 355 | 0.0 | 0.0 | 0.00 | 0.03 | 0.00 | 91 | 1015.8 |
| 20260507100803 | 4 | 355 | 0.0 | 0.0 | 0.00 | 0.03 | 0.00 | 91 | 1015.8 |
| 20260507100303 | 4 | 355 | 0.0 | 0.0 | 0.00 | 0.03 | 0.00 | 91 | 1015.8 |
| 20260507094803 | 4 | 355 | 0.0 | 0.0 | 0.00 | 0.03 | 0.00 | 91 | 1015.8 |
| 20260507094302 | 4 | 355 | 0.0 | 0.0 | 0.00 | 0.03 | 0.00 | 91 | 1015.7 |
| 20260507093803 | 4 | 355 | 0.0 | 0.0 | 0.00 | 0.03 | 0.00 | 91 | 1015.7 |
| 20260507093305 | 4 | 355 | 0.0 | 0.0 | 0.00 | 0.03 | 0.00 | 92 | 1015.8 |
| 20260507091803 | 4 | 355 | 0.0 | 0.0 | 0.00 | 0.03 | 0.00 | 91 | 1015.8 |
| 20260507090303 | 5 | 355 | 0.0 | 0.0 | 0.00 | 0.03 | 0.00 | 92 | 1015.7 |
| 20260507084803 | 5 | 355 | 0.0 | 0.0 | 0.00 | 0.03 | 0.00 | 92 | 1015.7 |
| 20260507084303 | 5 | 355 | 0.0 | 0.0 | 0.00 | 0.03 | 0.00 | 92 | 1015.6 |
| 20260507083803 | 5 | 355 | 0.0 | 0.0 | 0.00 | 0.05 | 0.00 | 92 | 1015.7 |
| 20260507083303 | 4 | 355 | 0.0 | 0.0 | 0.00 | 0.05 | 0.00 | 92 | 1015.8 |
| 20260507081803 | 4 | 355 | 0.0 | 0.0 | 0.00 | 0.05 | 0.00 | 92 | 1016.0 |
| 20260507080803 | 4 | 355 | 0.0 | 0.0 | 0.00 | 0.05 | 0.00 | 92 | 1016.0 |
| 20260507080303 | 4 | 355 | 0.0 | 0.0 | 0.00 | 0.05 | 0.00 | 91 | 1016.0 |
| 20260507074803 | 4 | 355 | 0.0 | 0.0 | 0.00 | 0.05 | 0.00 | 90 | 1016.0 |
| 20260507074303 | 4 | 355 | 0.0 | 0.0 | 0.00 | 0.05 | 0.00 | 91 | 1016.1 |
| 20260507073803 | 4 | 355 | 0.0 | 0.0 | 0.00 | 0.05 | 0.00 | 91 | 1016.1 |
| 20260507071303 | 4 | 355 | 0.0 | 0.0 | 0.00 | 0.08 | 0.00 | 91 | 1016.3 |
| 20260507070803 | 4 | 355 | 0.0 | 0.0 | 0.00 | 0.08 | 0.00 | 91 | 1016.4 |
| 20260507070303 | 3 | 355 | 0.0 | 0.0 | 0.00 | 0.08 | 0.00 | 91 | 1016.3 |
| 20260507064803 | 4 | 355 | 0.0 | 0.0 | 0.00 | 0.08 | 0.00 | 90 | 1016.4 |
| 20260507064304 | 4 | 355 | 0.0 | 0.0 | 0.00 | 0.08 | 0.00 | 91 | 1016.4 |
| 20260507063803 | 4 | 355 | 0.0 | 0.0 | 0.00 | 0.08 | 0.00 | 90 | 1016.4 |
| 20260507063303 | 4 | 355 | 0.0 | 0.0 | 0.00 | 0.08 | 0.00 | 90 | 1016.2 |
| 20260507061803 | 4 | 355 | 0.0 | 0.0 | 0.00 | 0.08 | 0.00 | 89 | 1016.3 |
| 20260507061303 | 4 | 355 | 0.0 | 0.0 | 0.00 | 0.08 | 0.00 | 90 | 1016.3 |
| 20260507060803 | 4 | 355 | 0.0 | 0.0 | 0.00 | 0.08 | 0.00 | 90 | 1016.3 |
| 20260507060303 | 4 | 355 | 0.0 | 0.0 | 0.00 | 0.08 | 0.00 | 90 | 1016.4 |
| 20260507054803 | 4 | 355 | 0.0 | 0.0 | 0.00 | 0.08 | 0.00 | 89 | 1016.7 |
| 20260507054303 | 4 | 355 | 0.0 | 0.0 | 0.00 | 0.08 | 0.00 | 89 | 1016.6 |
| 20260507053803 | 4 | 355 | 0.0 | 0.0 | 0.00 | 0.08 | 0.00 | 89 | 1016.6 |
| 20260507053303 | 5 | 355 | 0.0 | 0.0 | 0.00 | 0.08 | 0.00 | 89 | 1016.6 |
| 20260507050803 | 5 | 355 | 0.0 | 0.0 | 0.00 | 0.08 | 0.00 | 89 | 1016.4 |
| 20260507050304 | 5 | 355 | 0.0 | 0.0 | 0.00 | 0.08 | 0.00 | 88 | 1016.4 |
| 20260507044803 | 5 | 355 | 0.0 | 0.0 | 0.00 | 0.08 | 0.08 | 88 | 1016.5 |
| 20260507044303 | 5 | 355 | 0.0 | 0.0 | 0.00 | 0.08 | 0.08 | 87 | 1016.4 |
| 20260507043803 | 5 | 355 | 0.0 | 0.0 | 0.00 | 0.08 | 0.08 | 87 | 1016.4 |
| 20260507043303 | 5 | 355 | 0.0 | 0.0 | 0.00 | 0.08 | 0.08 | 88 | 1016.3 |
| 20260507041803 | 6 | 355 | 0.0 | 0.0 | 0.00 | 0.08 | 0.08 | 86 | 1016.3 |
| 20260507041303 | 6 | 355 | 0.0 | 0.0 | 0.00 | 0.08 | 0.08 | 87 | 1016.3 |
| 20260507040803 | 6 | 355 | 0.0 | 0.0 | 0.00 | 0.08 | 0.08 | 86 | 1016.3 |
| 20260507040303 | 6 | 355 | 0.0 | 0.0 | 0.00 | 0.08 | 0.08 | 86 | 1016.3 |
| 20260507034803 | 6 | 355 | 0.0 | 0.0 | 0.00 | 0.08 | 0.08 | 86 | 1016.3 |
| 20260507033803 | 6 | 355 | 0.0 | 0.0 | 0.00 | 0.08 | 0.08 | 86 | 1016.4 |
| 20260507033303 | 6 | 355 | 0.0 | 0.0 | 0.00 | 0.08 | 0.08 | 86 | 1016.4 |
| 20260507031803 | 6 | 355 | 0.0 | 0.0 | 0.00 | 0.08 | 0.08 | 85 | 1016.3 |
| 20260507031303 | 6 | 355 | 0.0 | 0.0 | 0.00 | 0.08 | 0.08 | 84 | 1016.3 |
| 20260507030804 | 6 | 355 | 0.0 | 0.0 | 0.00 | 0.10 | 0.08 | 84 | 1016.4 |
| 20260507030303 | 6 | 355 | 0.0 | 0.0 | 0.00 | 0.10 | 0.08 | 84 | 1016.3 |
| 20260507024803 | 7 | 355 | 0.0 | 0.0 | 0.00 | 0.13 | 0.08 | 82 | 1016.3 |
| 20260507024303 | 7 | 355 | 0.0 | 0.0 | 0.00 | 0.13 | 0.08 | 81 | 1016.4 |
| 20260507023303 | 7 | 355 | 0.0 | 0.0 | 0.00 | 0.13 | 0.08 | 79 | 1016.3 |
| 20260507021304 | 8 | 355 | 0.0 | 0.0 | 0.00 | 0.15 | 0.08 | 77 | 1015.9 |
| 20260507020803 | 8 | 355 | 0.0 | 0.0 | 0.00 | 0.15 | 0.08 | 76 | 1015.9 |
| 20260507020303 | 9 | 355 | 0.0 | 0.0 | 0.00 | 0.15 | 0.08 | 76 | 1015.8 |
| 20260507014803 | 10 | 355 | 0.0 | 0.0 | 0.00 | 0.18 | 0.08 | 72 | 1015.6 |
| 20260507014303 | 10 | 355 | 0.0 | 0.0 | 0.00 | 0.18 | 0.08 | 68 | 1015.6 |
| 20260507013803 | 10 | 355 | 0.0 | 0.0 | 0.00 | 0.20 | 0.08 | 69 | 1015.5 |
| 20260507013303 | 10 | 355 | 0.0 | 0.0 | 0.00 | 0.23 | 0.08 | 67 | 1015.5 |
| 20260507011303 | 11 | 355 | 0.0 | 0.0 | 0.00 | 0.33 | 0.08 | 63 | 1015.2 |
| 20260507010303 | 11 | 355 | 0.0 | 0.0 | 0.00 | 0.36 | 0.08 | 62 | 1015.2 |
| 20260507004803 | 11 | 355 | 0.0 | 0.0 | 0.00 | 0.38 | 0.08 | 60 | 1015.0 |
| 20260507001804 | 13 | 8 | 0.0 | 0.0 | 0.00 | 0.46 | 0.08 | 56 | 1014.9 |
| 20260507001303 | 13 | 298 | 0.0 | 0.0 | 0.00 | 0.48 | 0.08 | 51 | 1014.8 |
| 20260507000803 | 13 | 297 | 0.0 | 0.0 | 0.00 | 0.48 | 0.08 | 49 | 1014.8 |
| 20260507000306 | 13 | 299 | 1.6 | 14.5 | 0.00 | 0.48 | 0.08 | 47 | 1014.8 |
| 20260506234803 | 13 | 345 | 0.0 | 0.0 | 0.00 | 0.56 | 0.08 | 52 | 1014.8 |
| 20260506234303 | 13 | 337 | 0.0 | 0.0 | 0.00 | 0.58 | 0.08 | 47 | 1014.6 |
| 20260506233803 | 14 | 286 | 0.0 | 0.0 | 0.00 | 0.61 | 0.08 | 50 | 1014.6 |
| 20260506233303 | 14 | 291 | 0.0 | 12.9 | 0.00 | 0.64 | 0.08 | 47 | 1014.7 |
| 20260506231303 | 14 | 318 | 0.0 | 3.2 | 0.00 | 0.71 | 0.08 | 47 | 1014.9 |
| 20260506230803 | 15 | 19 | 0.0 | 0.0 | 0.00 | 0.74 | 0.08 | 47 | 1014.8 |
| 20260506230303 | 15 | 172 | 0.0 | 3.2 | 0.00 | 0.74 | 0.08 | 44 | 1014.9 |
| 20260506224804 | 15 | 3 | 0.0 | 0.0 | 0.00 | 0.76 | 0.08 | 51 | 1014.8 |
| 20260506224303 | 15 | 271 | 0.0 | 1.6 | 0.00 | 0.76 | 0.08 | 46 | 1014.8 |
| 20260506223804 | 15 | 252 | 0.0 | 1.6 | 0.00 | 0.79 | 0.08 | 49 | 1014.8 |
| 20260506223303 | 15 | 23 | 0.0 | 4.8 | 0.00 | 0.79 | 0.08 | 41 | 1014.7 |
| 20260506221804 | 15 | 255 | 0.0 | 4.8 | 0.00 | 0.79 | 0.08 | 47 | 1014.9 |
| 20260506221303 | 15 | 264 | 0.0 | 1.6 | 0.00 | 0.81 | 0.08 | 45 | 1014.7 |
| 20260506220303 | 16 | 264 | 0.0 | 4.8 | 0.00 | 0.84 | 0.08 | 41 | 1014.8 |
| 20260506214803 | 16 | 250 | 0.0 | 3.2 | 0.00 | 0.91 | 0.08 | 42 | 1014.6 |
| 20260506214303 | 16 | 15 | 0.0 | 8.0 | 0.00 | 0.94 | 0.08 | 43 | 1014.6 |
| 20260506213803 | 16 | 332 | 0.0 | 4.8 | 0.00 | 0.97 | 0.08 | 40 | 1014.6 |
| 20260506213303 | 16 | 287 | 0.0 | 4.8 | 0.00 | 0.99 | 0.08 | 44 | 1014.6 |
| 20260506211804 | 16 | 263 | 1.6 | 16.1 | 0.00 | 1.09 | 0.08 | 39 | 1014.6 |
| 20260506211304 | 16 | 215 | 0.0 | 0.0 | 0.00 | 1.09 | 0.08 | 43 | 1014.6 |
| 20260506210803 | 16 | 3 | 0.0 | 3.2 | 0.00 | 1.09 | 0.08 | 46 | 1014.7 |
| 20260506210304 | 16 | 254 | 0.0 | 1.6 | 0.00 | 1.09 | 0.08 | 46 | 1014.6 |
| 20260506204803 | 16 | 214 | 0.0 | 4.8 | 0.00 | 1.14 | 0.08 | 44 | 1014.9 |
| 20260506203803 | 16 | 236 | 1.6 | 14.5 | 0.00 | 1.17 | 0.08 | 41 | 1014.9 |
| 20260506203303 | 16 | 299 | 0.0 | 9.7 | 0.00 | 1.17 | 0.08 | 45 | 1015.0 |
| 20260506201803 | 16 | 19 | 0.0 | 4.8 | 0.00 | 1.19 | 0.08 | 46 | 1015.3 |
| 20260506201304 | 16 | 275 | 0.0 | 4.8 | 0.00 | 1.22 | 0.08 | 44 | 1015.3 |
| 20260506194303 | 16 | 231 | 0.0 | 1.6 | 0.00 | 1.22 | 0.08 | 47 | 1015.7 |
| 20260506193803 | 16 | 242 | 0.0 | 3.2 | 0.00 | 1.24 | 0.08 | 56 | 1015.7 |
| 20260506193303 | 15 | 293 | 0.0 | 0.0 | 0.00 | 1.24 | 0.08 | 45 | 1015.8 |
| 20260506191803 | 16 | 301 | 0.0 | 4.8 | 0.00 | 1.27 | 0.08 | 47 | 1015.9 |
| 20260506190804 | 16 | 312 | 1.6 | 4.8 | 0.00 | 1.30 | 0.08 | 51 | 1015.9 |
| 20260506190303 | 16 | 208 | 0.0 | 4.8 | 0.00 | 1.30 | 0.08 | 50 | 1015.8 |
| 20260506184304 | 16 | 286 | 0.0 | 4.8 | 0.00 | 1.32 | 0.08 | 46 | 1016.0 |
| 20260506183803 | 16 | 252 | 0.0 | 4.8 | 0.00 | 1.35 | 0.08 | 50 | 1016.0 |